Location: *
(41.7492°S, 135.4150°W)
Time: 01:43:16
(UTC+00:00)

TIGRISAT - Visible Passes

Search period start: 30 June 2022 00:00
Search period end: 10 July 2022 00:00
Orbit: 602 x 687 km, 97.7° (Epoch: 29 June)

Date Brightness Start Highest point End Pass type
(mag) Time Alt. Az. Time Alt. Az. Time Alt. Az.
30 Jun ? 02:06:46 10° NE 02:11:03 44° ESE 02:15:30 10° S visible
30 Jun ? 03:44:49 10° NW 03:47:55 18° W 03:51:07 10° SW visible
30 Jun ? 15:33:38 10° S 15:38:25 84° WSW 15:43:06 10° NNW visible
01 Jul ? 02:31:27 10° NNE 02:35:58 82° ESE 02:40:39 10° S visible
01 Jul ? 14:23:10 10° SE 14:26:29 19° E 14:29:44 10° NE visible
02 Jul ? 02:56:33 10° N 03:00:59 54° W 03:05:35 10° SSW visible
02 Jul ? 14:47:24 10° SSE 14:51:41 33° E 14:55:51 10° NNE visible
03 Jul ? 03:22:07 10° NNW 03:26:06 30° W 03:30:12 10° SSW visible
03 Jul ? 15:12:04 10° SSE 15:16:48 59° E 15:21:22 10° N visible
04 Jul ? 02:10:00 10° NNE 02:14:23 49° ESE 02:18:56 10° S visible
04 Jul ? 03:48:22 10° NW 03:51:19 17° W 03:54:19 10° SW visible
04 Jul ? 14:03:18 10° ESE 14:04:36 11° E 14:05:52 10° ENE visible
04 Jul ? 15:37:01 10° S 15:41:47 77° WSW 15:46:25 10° NNW visible
05 Jul ? 02:34:44 10° NNE 02:39:18 89° ENE 02:44:04 10° SSW visible
05 Jul ? 14:26:23 10° SE 14:29:52 20° E 14:33:17 10° NE visible
06 Jul ? 02:59:54 10° N 03:04:20 49° W 03:08:56 10° SSW visible
06 Jul ? 14:50:42 10° SSE 14:55:04 35° E 14:59:17 10° NNE visible
07 Jul ? 03:25:33 10° NNW 03:29:28 27° W 03:33:30 10° SW visible
07 Jul ? 15:15:25 10° SSE 15:20:09 65° E 15:24:42 10° N visible
08 Jul ? 02:13:13 10° NNE 02:17:43 54° ESE 02:22:21 10° S visible
08 Jul ? 03:51:56 10° NW 03:54:41 16° W 03:57:29 10° SW visible
08 Jul ? 14:06:10 10° ESE 14:07:59 12° E 14:09:46 10° ENE visible
08 Jul ? 15:40:24 10° S 15:45:07 70° WSW 15:49:41 10° NNW visible
09 Jul ? 02:38:02 10° N 02:42:39 83° WNW 02:47:25 10° SSW visible
09 Jul ? 14:29:37 10° SE 14:33:15 22° E 14:36:47 10° NE visible
